Wind_Speed
16 17 14 13 12 14 7 3 2 2 2 9 13 13 10 8 10 11 12 11 8 9 8 3 4 11 14 14 14 15 17 19 22 24 21 20 16 16 14 13 10 8 6 6
21 22 19 15 16 12 10 6 3 4 2 1 6 8 7 6 5 6 11 10 9 6 9 14 6 13 12 12 12 15 15 18 20 19 19 19 17 17 16 15 13 11 8 5
25 24 23 18 16 13 13 12 8 5 6 7 7 6 6 3 0 4 9 8 4 7 12 18 11 13 13 11 12 15 15 14 14 17 13 13 13 16 14 13 15 14 13 8
30 29 27 21 16 18 16 14 10 6 9 14 10 3 4 5 3 7 10 4 4 10 15 15 17 11 11 15 10 9 9 11 11 23 9 16 15 12 13 11 11 11 15 14
34 35 28 20 20 19 16 16 15 10 7 9 8 2 4 3 5 7 4 4 6 9 14 11 8 9 9 13 12 10 5 9 13 15 9 19 22 18 7 8 8 9 11 15
34 38 30 23 21 20 18 22 20 10 8 9 9 4 2 5 7 13 11 6 5 10 12 9 8 8 8 9 13 10 7 13 10 10 10 17 20 5 10 11 13 11 11 14
40 36 30 26 22 18 23 23 20 11 10 6 9 8 11 10 10 14 13 10 8 7 10 15 10 8 8 10 13 14 13 13 12 9 10 11 12 8 8 8 14 15 10 14
42 30 21 15 14 12 14 19 18 16 16 10 11 10 8 13 11 12 11 8 12 14 16 17 11 12 11 15 17 17 17 18 15 14 12 10 11 11 11 12 15 19 19 17
38 23 18 21 18 16 11 13 14 13 19 17 15 15 13 14 11 12 13 12 14 10 16 27 9 21 21 11 15 18 21 20 19 18 17 15 14 14 14 16 18 22 22 20
31 24 20 20 17 14 13 11 7 11 17 19 19 19 16 11 11 13 17 17 15 12 16 12 12 12 12 19 23 23 22 21 23 25 23 22 22 24 23 23 24 24 24 24
33 23 18 16 18 13 10 10 10 13 17 19 20 19 15 17 18 16 20 15 17 15 16 21 22 20 23 25 24 26 24 21 22 24 26 26 28 28 30 32 31 31 31 30
29 23 22 21 18 16 13 10 10 10 11 11 14 15 16 16 15 16 19 20 22 20 21 23 21 23 30 27 29 30 26 22 24 26 29 30 30 32 34 36 37 36 37 37
24 27 27 25 21 19 17 15 15 15 15 18 19 20 20 19 19 19 22 21 25 25 19 21 25 27 31 29 31 31 26 25 27 30 31 33 33 34 35 36 38 41 42 41
28 29 28 21 18 17 16 16 17 20 23 25 26 26 25 25 25 25 27 29 30 25 19 22 25 29 30 28 28 27 27 28 29 33 35 36 34 34 34 34 37 36 38 41
28 26 25 19 13 14 16 18 21 20 18 20 23 25 26 29 30 27 22 22 23 27 27 33 35 32 30 28 29 28 29 31 32 32 32 34 35 34 33 34 36 38 38 40
24 21 16 16 16 16 21 21 20 21 24 24 20 19 21 20 18 16 18 21 21 26 28 33 35 33 33 33 31 32 33 33 31 31 32 33 29 26 26 25 26 29 32 37
18 17 17 16 17 21 19 16 20 24 27 25 23 21 22 20 19 19 21 24 28 31 31 31 31 32 32 32 33 34 35 34 35 34 32 31 25 25 24 27 27 30 33 37
19 19 19 21 22 24 26 24 26 26 24 23 22 22 22 21 21 22 23 24 26 27 28 29 29 30 31 32 33 34 36 38 36 37 36 35 33 33 35 34 35 36 34 33
21 21 22 25 27 27 20 25 24 23 21 24 24 23 24 25 24 24 24 24 26 27 27 28 29 31 33 35 36 38 39 40 40 40 39 38 38 37 39 36 39 39 40 38
25 24 21 19 19 24 25 27 26 25 23 24 24 24 24 25 25 25 26 27 28 28 28 30 31 33 35 36 37 38 39 41 42 42 39 39 43 43 40 37 36 38 39 37
22 24 25 26 27 26 25 27 28 27 27 25 25 25 24 25 26 26 27 27 28 28 30 31 33 35 36 37 38 38 39 39 38 37 36 37 39 40 40 37 40 39 38 39
28 30 32 28 26 25 25 26 27 28 28 28 26 27 27 27 26 28 29 29 29 31 32 33 35 35 36 35 36 36 38 38 38 40 40 40 40 42 40 42 42 42 44 40
30 28 28 26 25 24 26 26 28 28 27 27 28 29 28 29 29 29 30 30 29 30 32 33 34 35 35 34 36 36 38 39 39 39 40 40 39 41 41 44 47 47 46 44
26 28 29 28 27 27 27 26 26 26 27 29 30 29 29 30 30 30 30 29 29 30 31 32 33 33 33 35 36 36 37 39 38 37 37 35 34 36 41 43 44 46 46 41
29 29 29 27 25 27 25 26 27 28 28 27 27 28 29 30 30 29 28 29 30 31 32 32 32 32 34 34 35 36 38 37 35 35 35 37 37 37 37 41 45 47 42 35
32 31 27 27 27 28 28 29 30 30 27 27 27 28 29 29 29 28 29 30 30 31 31 30 32 33 33 35 36 35 37 36 34 35 37 36 36 37 39 40 42 44 34 34
Wind_Direction
187 186 193 183 176 165 174 145 127 131 35 119 111 112 94 78 44 4 341 360 7 28 360 7 10 54 68 49 32 33 33 33 31 27 25 30 5 356 353 357 6 352 341 304
184 182 197 186 175 176 195 190 181 217 264 201 154 130 110 102 58 349 341 0 356 340 319 322 178 94 75 61 33 15 19 30 30 32 24 20 14 5 351 344 343 344 356 16
180 189 192 194 193 197 211 218 230 241 293 289 259 164 159 128 108 325 330 351 346 321 304 272 180 48 44 38 29 10 8 12 18 357 13 13 4 357 355 352 337 331 330 335
178 188 196 198 205 211 220 238 256 297 315 307 300 209 151 60 321 294 301 295 291 315 300 308 7 29 1 16 12 360 357 354 357 27 18 356 348 330 334 335 334 331 325 317
191 187 199 195 212 227 232 245 262 272 298 309 309 306 112 110 18 346 329 265 308 310 291 306 355 339 326 360 351 352 311 5 3 3 340 325 312 301 293 311 328 334 330 321
197 188 198 197 212 230 248 250 258 257 238 274 298 296 338 254 304 340 318 260 285 289 290 293 342 342 316 350 358 358 305 318 329 328 341 354 355 315 272 296 317 314 315 310
186 192 195 206 219 244 247 248 254 232 239 260 280 295 305 328 312 309 319 243 242 294 274 282 286 326 308 333 344 326 311 309 319 333 325 340 5 348 342 264 292 308 306 306
183 191 195 207 206 202 233 244 249 248 234 239 266 280 321 326 336 355 5 319 249 249 253 256 274 300 284 324 335 329 316 313 310 315 308 317 325 323 301 308 297 300 300 297
182 178 194 196 210 224 232 240 251 247 228 241 258 274 295 310 304 342 343 343 336 280 279 261 297 275 267 303 320 320 313 310 303 303 299 302 304 301 296 288 288 293 295 288
174 183 202 208 216 221 228 239 243 238 234 247 260 276 302 316 318 316 306 315 326 301 308 338 326 336 267 282 300 304 300 292 295 298 301 309 311 308 302 295 292 292 290 288
170 187 203 200 195 211 226 235 251 258 259 267 278 286 299 306 317 317 313 315 317 305 303 311 316 313 312 301 301 295 298 294 286 288 294 299 302 302 300 296 293 292 289 286
176 196 200 199 205 214 232 230 252 258 269 279 287 292 298 300 303 304 313 303 306 297 296 292 299 296 305 294 293 295 296 291 288 290 293 296 294 293 289 287 285 283 283 282
195 203 207 214 228 234 240 256 265 272 272 280 290 294 291 294 299 300 296 297 308 303 302 285 286 285 287 284 295 296 291 293 292 293 297 296 293 287 282 284 282 279 276 273
201 206 216 231 247 253 267 278 288 295 296 295 293 290 287 285 285 286 285 289 300 297 285 294 285 281 286 292 293 294 293 295 302 301 298 294 292 289 285 279 274 273 274 274
200 208 222 231 244 273 284 284 285 290 298 296 295 287 283 279 276 276 284 282 285 287 282 291 294 294 296 297 293 293 294 298 300 295 295 293 292 290 285 278 276 277 274 270
203 219 220 235 257 278 298 286 271 286 301 304 306 293 287 286 284 274 265 257 258 263 272 282 293 298 300 298 297 298 298 299 296 296 296 301 291 293 292 294 293 287 282 277
210 221 236 248 263 281 290 282 277 296 305 303 300 295 291 283 281 277 266 262 266 272 276 285 291 293 292 293 296 297 299 301 299 299 302 307 296 300 303 301 304 305 294 287
220 225 236 252 266 281 286 279 288 295 298 299 296 293 293 291 284 280 278 276 280 286 290 291 292 291 292 293 295 300 304 305 304 304 308 307 305 306 308 308 306 309 303 298
222 231 249 263 270 278 268 289 290 289 295 288 290 299 302 298 297 297 296 296 296 295 295 294 297 301 302 304 309 309 307 308 304 303 304 302 304 303 305 305 305 307 305 305
228 242 259 265 265 273 279 284 285 288 288 289 293 299 300 302 300 300 301 302 301 300 300 301 302 303 304 307 307 308 308 307 304 305 301 301 301 300 301 302 303 303 303 301
249 258 269 277 269 270 276 280 285 290 293 294 296 297 297 299 301 302 302 301 301 302 302 302 304 305 308 309 307 306 308 312 316 312 304 302 305 305 303 301 303 306 302 298
263 270 280 278 282 286 280 279 282 288 292 292 294 297 301 303 304 304 303 302 302 304 305 305 304 305 306 304 303 307 314 317 313 313 308 297 301 309 304 305 305 305 301 297
264 269 273 276 282 282 278 279 283 287 289 294 299 301 302 303 302 302 302 302 302 300 300 300 303 304 304 303 305 310 315 316 311 311 308 303 300 304 305 307 306 304 301 298
264 271 274 277 280 281 281 282 286 290 295 300 301 299 301 302 302 301 300 298 297 299 301 303 304 305 307 307 308 310 315 312 310 308 309 309 307 306 305 306 307 302 298 294
263 267 274 276 278 277 277 285 292 295 298 299 298 296 298 299 299 297 297 298 301 302 302 302 305 307 307 307 310 314 314 311 314 314 315 315 313 311 312 313 312 309 301 296
265 265 268 272 272 272 278 287 293 297 296 293 293 296 298 298 298 298 299 300 300 300 301 307 307 305 306 308 312 315 314 313 315 316 314 313 313 315 314 312 314 313 303 296
Height
5913 5918 5920 5923 5925 5927 5928 5929 5930 5930 5930 5930 5929 5930 5931 5931 5929 5928 5926 5924 5924 5921 5917 5915 5915 5912 5907 5907 5907 5906 5905 5906 5906 5905 5904 5902 5899 5897 5895 5892 5889 5888 5887 5886
5911 5916 5917 5921 5924 5926 5928 5929 5930 5930 5930 5930 5930 5930 5930 5930 5930 5929 5927 5925 5924 5921 5918 5915 5911 5907 5908 5906 5907 5908 5907 5907 5905 5904 5902 5902 5901 5900 5898 5896 5894 5892 5888 5886
5908 5914 5916 5920 5923 5925 5927 5928 5928 5929 5929 5928 5929 5929 5929 5930 5929 5929 5928 5926 5924 5920 5916 5907 5898 5910 5909 5909 5907 5908 5909 5908 5905 5903 5901 5899 5899 5898 5896 5896 5896 5894 5892 5888
5906 5911 5915 5918 5921 5924 5926 5926 5927 5927 5927 5927 5927 5929 5929 5929 5928 5927 5926 5926 5924 5920 5916 5913 5907 5911 5912 5911 5908 5908 5910 5909 5906 5902 5901 5899 5897 5896 5895 5893 5893 5893 5893 5892
5901 5907 5912 5917 5919 5922 5924 5925 5925 5926 5926 5926 5926 5927 5928 5928 5927 5926 5925 5924 5923 5920 5916 5917 5916 5915 5914 5913 5910 5907 5910 5910 5907 5903 5900 5896 5893 5893 5893 5893 5892 5891 5892 5891
5898 5904 5909 5916 5917 5920 5923 5923 5923 5924 5925 5925 5924 5926 5926 5926 5925 5924 5923 5922 5921 5919 5916 5916 5915 5915 5914 5913 5909 5910 5909 5907 5906 5902 5899 5896 5892 5890 5893 5892 5891 5889 5889 5890
5895 5901 5908 5912 5916 5919 5920 5921 5921 5923 5923 5924 5924 5925 5924 5924 5923 5921 5919 5919 5918 5916 5914 5914 5915 5913 5912 5911 5911 5909 5908 5906 5903 5900 5898 5895 5893 5892 5890 5891 5890 5889 5885 5886
5893 5901 5908 5912 5915 5916 5917 5918 5919 5920 5921 5922 5922 5923 5923 5922 5920 5919 5915 5914 5915 5913 5911 5911 5915 5914 5913 5911 5908 5907 5905 5902 5899 5897 5895 5893 5891 5890 5889 5888 5887 5885 5883 5881
5893 5902 5906 5909 5912 5914 5915 5916 5916 5916 5918 5919 5920 5920 5921 5920 5919 5917 5912 5912 5910 5910 5907 5906 5911 5909 5911 5908 5907 5905 5901 5897 5896 5894 5892 5889 5887 5887 5886 5885 5884 5882 5879 5877
5895 5901 5904 5907 5909 5911 5913 5914 5914 5914 5915 5917 5917 5917 5918 5917 5916 5915 5910 5909 5908 5908 5904 5902 5901 5904 5906 5903 5901 5900 5898 5895 5891 5889 5887 5883 5881 5878 5879 5878 5877 5875 5874 5871
5893 5898 5902 5905 5907 5909 5911 5911 5912 5913 5913 5914 5914 5914 5914 5913 5913 5911 5907 5906 5903 5902 5899 5898 5898 5898 5899 5896 5895 5895 5893 5889 5887 5884 5881 5878 5875 5872 5870 5869 5866 5865 5865 5865
5892 5896 5899 5902 5905 5907 5908 5909 5910 5911 5911 5910 5910 5911 5910 5909 5909 5907 5904 5900 5899 5898 5898 5895 5894 5894 5893 5890 5889 5888 5886 5883 5881 5878 5876 5871 5868 5864 5861 5859 5856 5855 5855 5855
5889 5894 5897 5900 5903 5904 5906 5907 5907 5906 5906 5906 5906 5905 5904 5903 5903 5902 5900 5896 5895 5894 5892 5892 5891 5890 5888 5885 5883 5879 5877 5875 5873 5871 5868 5864 5860 5856 5854 5850 5846 5844 5843 5842
5886 5891 5895 5899 5901 5902 5902 5902 5902 5901 5900 5899 5898 5897 5897 5896 5896 5895 5893 5891 5888 5887 5886 5886 5885 5882 5880 5878 5874 5871 5869 5867 5865 5862 5858 5854 5852 5847 5843 5841 5839 5835 5833 5830
5884 5889 5892 5895 5897 5898 5898 5898 5897 5896 5895 5894 5892 5890 5888 5887 5887 5887 5886 5884 5883 5881 5878 5876 5874 5872 5870 5867 5866 5863 5862 5858 5855 5852 5848 5844 5840 5835 5832 5830 5826 5824 5822 5818
5882 5886 5890 5892 5893 5894 5893 5892 5891 5890 5888 5887 5884 5882 5881 5879 5878 5878 5878 5876 5875 5872 5870 5869 5866 5863 5860 5857 5854 5852 5850 5848 5846 5843 5839 5832 5827 5823 5819 5815 5813 5811 5808 5805
5881 5884 5886 5888 5890 5889 5890 5888 5886 5884 5882 5880 5878 5876 5874 5872 5870 5870 5870 5869 5868 5866 5863 5861 5858 5855 5853 5849 5846 5843 5839 5835 5833 5830 5826 5821 5816 5811 5807 5805 5801 5799 5795 5789
5879 5881 5882 5884 5884 5885 5884 5882 5880 5878 5876 5874 5871 5869 5867 5865 5863 5862 5861 5860 5858 5857 5855 5853 5849 5846 5844 5841 5838 5832 5827 5824 5820 5815 5811 5806 5802 5798 5794 5790 5787 5784 5782 5778
5874 5877 5879 5880 5880 5879 5878 5876 5873 5871 5871 5867 5866 5864 5861 5859 5857 5856 5854 5852 5851 5849 5846 5843 5839 5836 5832 5828 5824 5820 5816 5812 5809 5804 5799 5794 5790 5786 5783 5778 5774 5770 5766 5763
5870 5873 5875 5874 5873 5872 5871 5869 5867 5865 5864 5862 5861 5858 5856 5853 5851 5848 5846 5844 5842 5839 5835 5833 5830 5826 5823 5819 5815 5810 5806 5803 5798 5792 5787 5782 5778 5774 5771 5767 5764 5760 5755 5751
5865 5866 5867 5866 5866 5865 5864 5862 5859 5859 5860 5855 5853 5851 5849 5847 5844 5841 5838 5836 5833 5830 5827 5824 5820 5816 5812 5808 5804 5801 5798 5793 5786 5779 5774 5770 5766 5763 5759 5756 5752 5748 5744 5739
5859 5859 5859 5858 5857 5858 5857 5855 5854 5852 5849 5847 5846 5844 5842 5839 5836 5833 5830 5827 5824 5820 5817 5814 5811 5808 5804 5801 5797 5793 5788 5781 5775 5770 5764 5760 5756 5752 5748 5745 5740 5735 5731 5726
5851 5851 5851 5853 5852 5850 5848 5848 5846 5844 5842 5840 5839 5837 5834 5831 5828 5826 5823 5820 5817 5815 5812 5808 5805 5800 5796 5792 5788 5783 5778 5772 5766 5760 5755 5750 5746 5741 5737 5732 5727 5722 5716 5712
5843 5844 5844 5845 5844 5842 5841 5840 5839 5837 5835 5833 5831 5829 5826 5824 5821 5818 5816 5814 5811 5808 5804 5801 5797 5792 5788 5783 5779 5775 5770 5763 5758 5752 5746 5740 5735 5730 5726 5720 5715 5709 5702 5697
5837 5837 5838 5837 5836 5835 5834 5833 5832 5830 5828 5826 5824 5822 5820 5817 5814 5812 5809 5806 5803 5799 5796 5793 5788 5784 5779 5775 5770 5766 5760 5754 5748 5742 5737 5731 5726 5721 5715 5709 5702 5694 5686 5682
5829 5830 5830 5830 5829 5828 5827 5826 5825 5823 5822 5820 5817 5815 5812 5809 5807 5804 5801 5798 5795 5791 5788 5784 5780 5776 5771 5766 5761 5757 5750 5745 5740 5735 5729 5724 5718 5712 5705 5698 5690 5683 5675 5670